EW3922 Weather Reports


time (UTC)temp
F
wind
direction
speed
knots
gust
knots
rain 1hr
in
rain 24hr
in
rain mn
in
humidity
%
barometer
mb
20260906113012 74 40 0.0 0.0 0.00 0.00 0.00 70 1013.0
20260906111518 74 40 0.0 0.0 0.00 0.00 0.00 70 1012.9
20260906110018 74 40 0.0 0.0 0.00 0.00 0.00 70 1012.5
20260906104512 74 40 0.0 0.0 0.00 0.00 0.00 70 1012.4
20260906103018 75 40 0.0 0.0 0.00 0.00 0.00 70 1012.1
20260906101509 75 40 0.0 0.0 0.00 0.00 0.00 70 1012.2
20260906100020 75 40 0.0 0.0 0.00 0.00 0.00 70 1012.1
20260906094518 75 40 0.0 0.0 0.00 0.00 0.00 69 1011.9
20260906093018 75 40 0.0 0.0 0.00 0.00 0.00 69 1012.0
20260906091523 75 40 0.0 0.0 0.00 0.00 0.00 69 1012.1
20260906090018 75 40 0.0 0.0 0.00 0.00 0.00 70 1012.2
20260906084519 75 40 0.0 0.0 0.00 0.00 0.00 70 1012.2
20260906083023 75 40 0.0 0.0 0.00 0.00 0.00 71 1011.9
20260906081528 75 40 0.0 0.0 0.00 0.00 0.00 70 1011.7
20260906080023 76 40 0.0 0.9 0.00 0.00 0.00 70 1011.7
20260906074510 76 40 0.0 0.0 0.00 0.00 0.00 71 1011.5
20260906073020 76 40 0.0 0.0 0.00 0.00 0.00 72 1011.6
20260906071511 76 40 0.0 0.0 0.00 0.00 0.00 71 1011.5
20260906070009 76 40 0.0 0.0 0.00 0.00 0.00 72 1011.4
20260906064517 76 40 0.0 0.0 0.00 0.00 0.00 72 1011.7
20260906063007 76 40 0.0 0.0 0.00 0.00 0.00 72 1011.8
20260906061517 76 40 0.0 0.0 0.00 0.00 0.00 73 1011.9
20260906060009 77 40 0.0 0.0 0.00 0.00 0.00 73 1012.0
20260906054520 77 40 0.0 0.0 0.00 0.00 0.00 73 1012.1
20260906053010 77 40 0.0 0.0 0.00 0.00 0.00 73 1012.1
20260906051503 77 40 0.0 0.0 0.00 0.00 0.00 73 1012.2
20260906050044 77 40 0.0 0.0 0.00 0.00 0.00 73 1012.2
20260906044507 77 40 0.0 0.0 0.00 0.00 0.00 74 1012.3
20260906043017 77 40 0.0 0.0 0.00 0.00 0.00 74 1012.5
20260906041507 78 40 0.0 0.0 0.00 0.00 0.00 74 1012.4
20260906040018 78 40 0.0 0.0 0.00 0.00 0.00 75 1012.2
20260906034509 78 40 0.0 0.0 0.00 0.00 0.00 75 1012.3
20260906033024 79 40 0.0 0.0 0.00 0.00 0.00 76 1012.1
20260906031514 79 40 0.0 0.0 0.00 0.00 0.00 77 1011.9
20260906030019 79 40 0.0 0.0 0.00 0.00 0.00 77 1011.8
20260906024514 80 40 0.0 0.0 0.00 0.00 0.00 77 1011.6
20260906023026 80 40 0.0 0.0 0.00 0.00 0.00 77 1011.5
20260906021513 81 40 0.0 0.0 0.00 0.00 0.00 78 1011.6
20260906020009 81 40 0.0 0.0 0.00 0.00 0.00 78 1011.4
20260906014517 82 40 0.0 0.0 0.00 0.00 0.00 78 1011.4
20260906013009 82 40 0.0 0.0 0.00 0.00 0.00 79 1011.3
20260906011515 83 40 0.0 0.0 0.00 0.00 0.00 78 1011.3
20260906010007 84 40 0.0 0.0 0.00 0.00 0.00 78 1011.0
20260906004522 85 40 0.0 0.0 0.00 0.00 0.00 78 1010.9
20260906003010 85 40 0.0 0.0 0.00 0.00 0.00 78 1011.0
20260906001519 86 40 0.0 0.0 0.00 0.00 0.00 77 1011.0
20260906000010 87 40 0.0 0.0 0.00 0.00 0.00 75 1011.0
20260905234558 89 40 0.0 0.0 0.00 0.00 0.00 74 1010.9
20260905233023 90 40 0.0 0.0 0.00 0.00 0.00 73 1011.1
20260905231525 91 40 0.0 0.0 0.00 0.00 0.00 72 1011.0
20260905230013 92 40 0.0 0.0 0.00 0.00 0.00 70 1011.2
20260905224508 92 40 0.0 0.0 0.00 0.00 0.00 68 1011.1
20260905223016 93 40 0.0 0.0 0.00 0.00 0.00 66 1011.0
20260905221508 94 40 0.0 0.0 0.00 0.00 0.00 61 1011.0
20260905220017 96 40 0.0 0.0 0.00 0.00 0.00 60 1011.3
20260905214509 96 40 0.0 0.0 0.00 0.00 0.00 59 1011.3
20260905213020 97 40 0.0 0.9 0.00 0.00 0.00 56 1011.4
20260905211511 98 40 0.0 0.0 0.00 0.00 0.00 55 1011.4
20260905210023 98 40 0.0 0.0 0.00 0.00 0.00 53 1011.5
20260905204512 98 40 0.0 0.0 0.00 0.00 0.00 55 1011.7
20260905203007 98 40 0.0 0.0 0.00 0.00 0.00 56 1011.9
20260905201514 98 40 0.0 0.0 0.00 0.00 0.00 55 1012.1
20260905200009 97 40 0.0 0.9 0.00 0.00 0.00 53 1012.4
20260905194515 96 40 0.0 0.0 0.00 0.00 0.00 57 1012.6
20260905193016 94 40 0.0 0.9 0.00 0.00 0.00 54 1012.9
20260905191519 95 40 0.0 3.5 0.00 0.00 0.00 52 1013.2
20260905190014 97 28 0.0 3.5 0.00 0.00 0.00 55 1013.3
20260905184523 98 40 0.0 0.0 0.00 0.00 0.00 52 1013.4
20260905183024 99 70 0.0 0.0 0.00 0.00 0.00 55 1013.5
20260905181511 98 70 0.0 0.0 0.00 0.00 0.00 58 1013.6
20260905180017 98 70 0.0 0.0 0.00 0.00 0.00 56 1013.8
20260905174516 98 70 0.0 0.0 0.00 0.00 0.00 60 1013.8
20260905173015 97 70 0.0 0.0 0.00 0.00 0.00 55 1013.9
20260905171525 96 59 0.0 0.0 0.00 0.00 0.00 58 1014.1
20260905170013 94 59 0.0 0.0 0.00 0.00 0.00 64 1014.3
20260905164524 93 59 0.0 0.0 0.00 0.00 0.00 66 1014.5
20260905163011 91 59 0.0 0.0 0.00 0.00 0.00 69 1014.6
20260905161523 89 59 0.0 0.0 0.00 0.00 0.00 74 1014.7
20260905160022 87 59 0.0 0.0 0.00 0.00 0.00 77 1014.7
20260905154519 85 59 0.0 0.0 0.00 0.00 0.00 77 1014.8
20260905153012 82 59 0.0 0.0 0.00 0.00 0.00 76 1014.8
20260905151521 80 59 0.0 0.0 0.00 0.00 0.00 64 1015.0
20260905150022 79 59 0.0 0.0 0.00 0.00 0.00 61 1015.0
20260905144539 78 59 0.0 0.0 0.00 0.00 0.00 61 1015.1
20260905143020 78 59 0.0 0.0 0.00 0.00 0.00 61 1014.9
20260905141533 77 59 0.0 0.0 0.00 0.00 0.00 61 1014.9
20260905140015 76 59 0.0 0.0 0.00 0.00 0.00 61 1014.9
20260905134512 75 59 0.0 0.0 0.00 0.00 0.00 62 1015.0
20260905133016 75 59 0.0 0.0 0.00 0.00 0.00 63 1014.9
20260905131503 74 59 0.0 0.0 0.00 0.00 0.00 64 1014.9
20260905130020 74 59 0.0 0.0 0.00 0.00 0.00 64 1014.9
20260905124508 73 59 0.0 0.0 0.00 0.00 0.00 66 1014.7
20260905123021 72 59 0.0 0.0 0.00 0.00 0.00 68 1014.5
20260905121509 72 59 0.0 0.0 0.00 0.00 0.00 68 1014.5
20260905120043 72 59 0.0 0.0 0.00 0.00 0.00 68 1014.5
20260905114520 72 59 0.0 0.0 0.00 0.00 0.00 68 1014.4